Wind_Speed
44 46 40 39 40 39 35 30 27 20 17 24 30 29 22 19 23 24 23 23 23 26 26 24 22 21 21 19 16 15 16 16 17 17 16 16 16 16 16 15 15 15 14 14 16 16 16 16 16 15 16 16 16 16 16 15 14 14 13 13 13 13 14 13 12 12 12 12 12 12 12 12 12 13 13 13 13 13 14 15 16 17 18 19 18 19
43 46 45 43 39 36 33 29 26 20 16 20 26 29 26 21 22 25 25 24 24 26 25 24 24 23 21 20 19 20 21 20 20 19 18 17 17 17 17 16 16 15 15 16 16 16 16 16 16 16 17 17 16 16 16 15 15 15 15 14 14 14 14 13 13 13 13 12 13 13 13 13 13 13 13 13 13 14 14 15 16 18 19 20 20 20
40 48 49 40 34 32 31 30 27 23 19 19 23 27 28 26 24 25 27 26 25 24 24 23 24 23 21 21 22 22 23 21 20 19 17 17 18 18 18 17 17 16 15 16 16 16 16 16 17 17 17 16 16 16 17 17 17 17 15 14 14 14 14 14 14 14 14 14 14 14 14 14 14 13 13 14 14 15 15 16 17 19 20 21 21 22
40 47 46 33 29 30 29 31 30 26 22 20 21 25 29 30 26 24 26 25 23 22 22 21 21 22 21 22 24 24 23 21 20 19 18 19 20 19 18 18 18 17 16 15 16 16 17 17 17 17 16 16 16 17 17 17 17 17 16 16 16 16 16 16 16 15 15 15 15 14 14 14 14 14 14 15 16 16 17 18 19 20 21 21 22 23
36 36 35 28 27 28 27 29 32 30 26 22 20 22 27 32 29 24 24 23 21 21 21 19 19 24 26 24 26 25 23 24 22 21 21 20 20 20 20 20 20 19 17 17 17 18 18 18 18 18 17 18 18 18 18 18 18 18 18 17 17 17 17 17 16 16 16 16 15 15 15 15 14 15 16 17 17 18 18 18 19 20 21 22 22 23
26 24 21 24 26 28 27 28 33 32 26 23 21 20 23 30 30 26 22 20 20 21 22 20 14 18 26 27 27 26 24 25 23 22 22 20 20 21 21 22 21 20 19 19 19 19 19 20 20 20 20 20 19 19 19 20 20 19 19 19 18 18 18 17 17 17 17 17 16 16 16 15 16 17 18 18 19 19 19 19 19 20 21 22 22 22
19 20 16 21 24 26 29 30 33 33 27 23 20 18 21 29 32 29 26 21 20 19 20 22 17 13 19 20 21 24 25 25 24 23 22 21 21 22 22 22 22 22 21 20 21 21 21 21 22 22 21 21 20 21 21 21 21 20 20 20 19 19 18 18 18 18 18 18 17 17 17 17 18 18 19 20 20 20 20 20 20 20 21 21 20 19
16 19 18 20 23 25 30 32 32 33 29 23 19 16 18 25 28 29 28 25 23 21 17 21 23 18 20 19 15 15 19 21 23 24 22 22 22 22 22 22 23 23 22 22 22 22 22 22 22 23 22 22 22 22 21 21 21 20 20 20 20 20 20 19 18 18 18 18 18 19 19 19 20 20 20 20 20 21 21 21 21 20 20 19 18 17
15 20 20 21 24 25 28 30 29 31 30 23 17 14 14 16 19 21 23 24 23 20 17 19 21 14 18 25 20 16 18 18 19 21 21 22 22 21 21 22 23 23 23 23 23 23 23 23 23 24 24 23 22 22 22 21 21 21 21 21 21 21 20 19 19 19 19 20 20 20 20 21 21 21 21 21 21 21 21 20 19 18 18 17 15 14
14 18 19 22 25 24 26 26 25 27 30 26 17 12 13 13 14 15 16 21 20 16 16 21 22 13 11 23 25 21 22 22 18 17 17 18 20 22 22 23 23 23 23 24 24 25 25 25 25 25 25 25 24 24 23 23 23 22 22 22 22 22 21 20 20 20 20 21 21 22 22 22 21 21 22 22 21 21 19 18 16 15 15 13 12 11
15 15 18 23 24 24 25 26 25 24 26 28 20 14 15 15 15 15 15 18 13 10 17 21 23 17 8 14 23 24 24 23 21 18 15 17 19 20 21 22 23 24 24 24 25 26 26 26 26 26 26 26 26 26 26 26 26 25 24 23 23 22 22 21 21 22 22 22 22 22 22 22 22 22 22 22 21 19 17 15 13 12 11 11 10 10
18 15 19 24 24 24 25 26 27 23 24 27 23 19 18 14 14 13 12 15 8 5 14 19 21 20 13 10 13 18 21 20 20 19 18 19 19 18 19 20 22 23 24 25 26 27 27 27 27 26 26 26 27 28 29 29 28 27 26 25 24 23 23 23 23 23 23 23 23 22 23 23 22 22 22 21 19 17 14 12 11 10 9 10 10 11
23 20 20 22 24 26 26 27 27 24 24 25 24 25 19 9 7 8 5 8 7 3 9 15 17 18 19 19 12 11 15 16 17 18 17 18 18 17 18 19 20 21 22 24 26 27 27 28 27 27 27 27 28 29 30 31 30 29 28 27 26 25 24 24 24 24 23 23 22 22 22 22 22 22 20 18 15 13 11 10 10 10 10 10 10 11
23 22 24 23 23 27 28 29 29 27 26 27 27 28 22 8 4 4 3 1 3 4 8 12 13 11 15 19 18 17 18 19 19 18 18 18 16 16 17 19 21 22 22 23 24 25 25 26 27 27 28 28 28 29 30 31 30 29 28 27 26 25 25 25 24 24 23 22 21 21 22 22 21 19 16 13 11 10 10 10 10 10 11 11 12 14
21 18 27 28 24 25 28 29 29 29 29 28 27 26 23 16 8 4 5 4 3 5 9 12 9 7 8 10 15 19 21 24 24 22 21 19 16 15 16 18 20 21 23 23 23 23 24 24 25 26 27 27 28 29 29 29 28 27 26 24 24 24 24 23 23 22 21 21 21 21 20 19 16 14 12 11 10 10 10 10 11 12 13 14 16 18
24 17 24 29 25 23 26 27 27 27 28 27 27 26 24 21 14 7 7 10 8 5 7 12 10 8 8 7 11 15 18 22 24 23 23 21 19 18 18 19 19 20 21 22 23 24 24 24 24 24 25 25 26 26 26 26 24 23 22 21 20 20 20 20 20 20 20 20 19 19 17 15 13 11 11 11 11 11 11 12 13 14 16 17 19 20
26 19 22 28 26 23 22 25 27 26 25 25 27 28 24 20 15 8 6 8 7 3 5 12 14 14 11 10 14 15 14 15 17 17 18 18 20 21 22 23 23 22 21 21 22 23 23 24 24 24 24 24 24 24 24 23 21 19 18 17 17 18 18 18 19 19 19 18 17 16 14 12 12 12 12 12 12 13 13 14 15 16 18 19 20 22
26 20 22 28 27 25 23 22 26 27 24 24 27 28 23 17 14 11 5 4 4 2 4 11 17 19 15 12 14 17 16 16 16 15 15 16 17 18 20 21 23 23 21 20 20 21 22 23 23 24 23 23 22 22 22 20 18 17 16 16 16 17 17 17 18 18 18 17 16 14 13 13 13 13 13 14 14 14 15 16 17 18 20 21 22 24
27 19 19 27 27 25 25 24 25 28 26 24 25 27 23 14 14 15 8 2 4 2 3 8 14 18 18 16 14 14 15 15 17 18 18 19 18 18 18 18 19 19 18 18 18 18 19 20 20 21 21 21 20 20 19 17 16 15 14 15 16 16 17 18 18 18 17 16 15 14 14 14 14 15 15 15 15 15 16 18 19 21 22 24 25 26
29 21 17 25 28 25 26 28 28 29 29 26 22 25 26 18 16 20 15 7 6 4 3 3 4 11 18 20 16 14 14 13 14 14 13 14 16 17 17 15 15 16 17 17 17 17 17 17 18 18 17 17 16 15 15 14 13 14 14 15 16 16 17 17 17 17 16 15 15 15 15 15 16 16 16 16 16 17 18 20 21 22 23 25 26 28
30 27 20 23 27 27 28 30 31 30 30 29 26 27 28 22 16 17 18 14 6 3 3 3 2 7 13 16 16 16 16 16 15 14 12 11 13 13 12 11 11 13 14 15 15 15 15 15 16 16 15 14 14 13 13 13 13 13 14 15 16 16 17 17 17 16 16 16 16 16 16 17 17 17 17 17 18 19 20 21 22 23 24 25 26 28
29 30 25 24 28 30 30 30 30 30 30 32 31 31 32 29 23 14 11 17 16 8 4 4 3 7 9 10 11 11 12 14 13 13 13 12 12 11 10 9 10 11 12 12 13 13 13 14 14 14 14 14 14 13 13 13 13 14 15 15 15 16 16 16 17 17 17 16 17 17 17 18 18 18 19 19 20 21 22 22 23 24 25 26 28 30
28 29 25 25 28 31 29 29 30 30 31 33 32 32 33 33 31 20 10 15 19 13 7 3 2 5 7 8 7 7 8 8 6 6 7 9 10 10 10 11 11 11 12 12 12 13 13 14 14 14 15 15 14 13 13 13 14 15 15 15 15 16 17 17 18 18 18 18 18 18 19 19 20 20 20 21 22 23 23 24 24 25 27 28 30 31
27 26 23 21 21 26 27 28 32 31 32 33 32 33 32 32 34 27 16 13 14 15 13 6 2 7 9 9 8 8 7 6 6 7 7 7 8 8 9 11 12 12 12 13 13 13 14 14 15 16 16 16 15 14 14 14 14 14 15 16 17 18 18 19 19 20 20 20 19 19 20 21 21 22 23 24 25 25 25 25 26 27 28 30 31 33
25 22 23 18 9 11 15 18 26 32 34 35 35 35 34 32 33 28 20 14 11 15 19 11 7 15 17 13 11 11 12 14 16 16 13 10 10 9 9 10 11 12 13 13 14 14 15 16 17 18 18 17 17 16 15 15 15 16 17 18 19 19 20 21 21 22 21 21 21 20 21 22 23 23 24 25 26 26 26 27 27 27 29 30 32 34
28 23 27 22 10 9 12 16 25 35 37 36 35 36 35 33 32 31 26 19 13 15 19 16 17 24 26 22 21 20 20 20 17 14 12 11 10 9 10 11 11 11 12 13 14 15 16 18 19 19 19 18 18 17 16 17 17 18 19 20 20 21 22 22 23 23 24 23 23 23 23 24 24 24 25 26 26 27 27 28 29 29 30 32 33 35
34 29 31 32 28 27 28 29 32 35 35 35 34 36 37 36 36 34 29 25 24 22 23 27 30 31 29 25 22 21 19 16 13 12 13 13 11 9 9 10 11 12 12 14 16 17 18 19 20 20 20 19 18 19 19 20 20 20 21 22 22 23 24 24 25 26 26 26 26 25 25 24 24 24 25 25 26 27 28 29 30 31 32 33 34 35
37 34 34 36 37 36 35 32 31 32 34 35 35 36 39 39 39 39 34 34 34 26 24 33 38 36 34 28 21 20 19 17 17 17 16 15 13 12 12 13 13 14 14 14 16 18 19 20 21 21 21 21 21 21 22 22 23 23 23 24 24 25 25 26 27 27 28 28 28 28 27 25 25 25 25 25 26 27 28 29 30 32 33 34 35 36
37 37 36 36 35 34 33 30 29 31 32 33 33 34 37 38 39 40 39 40 39 33 30 36 38 37 36 30 25 25 24 23 24 22 19 16 14 15 16 16 16 16 16 15 15 17 19 21 21 22 22 23 23 24 24 24 25 25 25 26 26 27 28 28 29 29 30 30 30 30 29 27 26 25 25 26 27 27 28 29 30 31 33 34 36 37
35 34 34 34 32 31 30 29 27 28 27 29 30 29 31 34 36 36 36 36 38 39 38 37 37 38 35 30 29 29 27 27 27 24 22 19 18 19 19 18 16 16 16 15 14 16 18 20 22 23 24 25 26 26 26 26 27 27 27 28 28 29 29 30 30 31 31 32 32 31 30 29 27 26 26 27 27 28 28 29 30 30 31 33 36 39
33 28 28 31 30 28 29 28 26 25 25 25 26 25 26 29 31 33 33 33 37 40 38 37 40 40 34 30 31 31 30 30 28 24 23 22 21 22 21 18 16 16 16 15 14 16 18 21 23 24 25 26 27 28 28 28 28 29 29 30 30 31 31 31 32 32 33 33 33 32 31 30 28 27 27 27 28 29 29 30 30 31 31 32 36 39
32 25 24 27 25 24 27 25 23 23 22 22 24 27 28 30 32 35 34 33 36 37 35 37 42 40 33 29 28 29 30 28 25 23 24 24 25 24 22 18 15 16 17 16 15 17 18 20 21 23 24 26 27 28 29 30 30 30 31 31 32 32 33 33 34 34 34 35 35 33 32 31 30 29 29 29 30 30 31 31 32 32 32 32 35 38
31 26 23 22 22 22 24 24 23 20 14 19 31 35 34 35 34 32 31 30 30 31 32 36 40 36 29 25 25 27 28 25 24 24 25 26 27 26 24 19 16 17 17 18 18 18 19 19 20 22 25 27 28 29 31 32 32 33 33 33 33 34 34 35 35 35 36 36 36 35 34 33 32 31 31 32 32 32 32 33 33 32 32 33 35 37
29 27 22 19 19 18 19 22 20 13 12 25 38 39 35 35 32 29 30 31 29 29 31 33 33 30 27 25 26 28 28 27 26 26 26 26 26 25 24 20 19 21 22 23 24 24 24 23 23 24 27 28 30 32 33 34 34 34 34 33 33 34 35 36 37 37 37 37 36 36 35 34 34 34 34 34 34 34 34 33 33 32 32 33 35 37
29 28 22 19 16 11 15 19 12 10 22 32 33 32 31 31 31 31 33 34 32 31 33 33 34 34 33 32 32 32 33 32 31 31 30 29 28 26 24 22 22 24 25 27 28 29 29 29 28 28 29 30 31 33 34 35 35 35 35 34 34 35 36 37 38 38 38 38 38 37 37 36 36 35 35 36 36 35 34 34 33 32 33 34 35 37
31 31 28 24 18 11 13 16 11 15 26 26 24 29 30 27 29 31 33 36 35 34 35 36 38 37 35 35 35 35 36 36 36 36 35 34 32 29 25 24 24 25 27 27 27 28 30 31 31 31 31 31 32 33 34 35 35 36 36 36 36 36 37 38 39 39 39 39 38 38 37 37 36 36 36 37 36 36 35 33 32 32 33 35 37 38
32 33 33 29 27 22 16 16 18 21 23 28 32 34 33 32 32 29 30 36 37 35 36 38 38 38 36 36 35 35 36 37 37 38 39 37 35 32 28 27 27 27 28 29 28 29 30 30 32 32 33 33 32 33 35 36 36 37 37 38 38 38 38 39 40 40 40 40 39 39 38 37 37 37 37 37 36 35 34 33 33 33 35 36 38 40
33 33 32 30 32 32 24 16 13 12 23 39 44 39 35 34 32 28 29 37 42 39 37 38 38 39 37 35 35 34 33 35 38 41 40 36 34 33 32 30 29 28 29 30 31 32 31 31 31 32 34 34 33 33 35 36 37 38 39 40 39 39 40 40 41 41 41 40 40 39 38 38 38 38 38 37 36 35 33 33 34 35 36 38 39 41
35 31 31 30 30 33 29 20 12 16 34 46 43 41 39 35 34 27 24 39 50 44 40 41 41 40 38 34 33 32 30 34 39 40 35 30 29 30 30 30 28 27 28 29 30 31 32 32 32 33 35 35 34 34 35 36 38 39 40 41 41 41 41 41 41 41 41 41 40 39 39 39 38 38 37 36 35 34 33 34 35 36 38 39 41 43
34 31 31 33 33 33 33 27 22 30 43 43 38 40 37 31 28 18 16 34 43 35 36 40 35 32 32 29 28 29 30 33 35 32 27 24 25 27 28 28 28 27 28 28 29 30 32 33 34 35 36 36 35 35 36 37 38 39 40 41 41 41 41 41 42 41 41 41 40 39 39 39 38 37 36 35 34 34 34 35 35 37 39 40 43 45
33 31 31 35 36 33 31 29 27 35 43 39 36 36 29 20 19 21 27 35 26 17 25 28 19 18 21 19 20 23 23 25 25 24 22 21 22 24 25 27 27 27 28 28 29 30 31 33 34 36 36 37 37 37 37 37 37 38 39 40 41 41 42 41 41 41 41 41 40 40 40 39 37 36 35 34 34 34 34 35 36 38 40 43 45 46
33 31 30 33 35 32 31 29 25 32 43 41 35 31 24 20 25 31 36 34 22 20 26 25 20 21 21 18 18 18 17 18 20 21 22 21 22 24 25 25 26 26 27 28 28 29 29 30 32 34 35 37 38 38 38 38 38 38 39 39 40 41 41 41 41 41 41 41 41 40 39 37 36 35 35 34 35 35 35 37 38 41 43 45 45 45
35 31 30 34 35 30 27 23 18 26 39 37 31 28 27 28 32 35 33 29 26 28 28 26 26 25 21 20 21 19 19 20 20 21 22 21 21 22 22 22 22 23 24 26 27 27 27 28 29 30 32 34 35 37 38 39 39 39 38 39 39 40 40 41 41 41 41 41 41 39 37 36 35 35 35 34 35 35 37 39 41 43 44 45 44 44
35 34 34 38 38 33 30 28 29 35 38 33 30 31 30 29 31 31 28 26 25 25 25 25 25 22 21 21 20 19 21 21 20 22 22 21 21 21 21 22 22 22 24 25 26 27 27 28 28 29 30 32 33 35 36 37 37 37 37 37 38 39 40 40 41 41 41 40 39 37 36 36 35 35 34 34 35 36 38 40 42 43 44 43 44 45
33 35 34 35 36 35 35 35 38 41 40 37 35 31 24 22 23 23 23 24 22 22 24 24 23 22 21 20 20 21 22 21 22 23 23 22 24 24 25 26 26 27 28 28 29 30 31 31 32 33 33 33 34 34 34 34 34 34 35 36 37 39 40 40 41 40 39 38 37 36 36 35 34 34 34 35 36 38 39 41 42 43 43 44 45 47
33 33 33 33 33 33 35 38 38 39 41 40 35 27 21 20 20 19 20 21 21 22 23 24 24 24 22 21 22 22 22 22 24 25 26 27 27 27 27 27 27 27 27 27 28 29 29 31 32 33 33 33 32 32 32 31 31 32 34 36 37 38 39 39 39 38 37 36 36 35 34 34 33 34 35 36 38 39 40 42 42 43 44 45 46 48
35 34 33 33 33 33 36 39 38 37 39 39 36 32 27 24 21 20 20 21 21 22 23 24 25 25 24 24 24 23 24 27 28 28 29 29 27 25 25 25 25 26 25 25 26 26 26 27 28 28 29 29 28 28 28 28 29 31 33 35 36 36 37 37 36 36 35 35 34 33 33 34 34 36 37 37 39 40 41 42 43 44 45 46 47 48
38 36 34 34 35 37 40 40 37 35 36 37 38 35 30 25 22 21 21 21 22 24 25 27 28 28 29 29 28 29 29 29 29 28 26 25 24 24 24 24 25 25 24 25 25 24 25 25 25 26 27 27 27 27 26 27 29 31 32 33 34 34 35 35 35 34 33 33 33 33 34 35 35 36 37 37 39 40 42 43 44 45 46 47 48 49
39 39 39 38 38 39 42 41 39 38 36 36 37 36 33 29 25 23 23 24 25 27 28 30 31 32 33 33 34 34 32 29 28 26 25 24 25 24 24 24 25 24 24 24 24 24 24 25 25 26 27 28 29 28 27 28 29 30 30 31 32 32 33 33 33 32 32 32 33 33 34 35 35 36 37 38 40 42 42 44 45 46 47 48 49 50
42 43 43 41 39 42 44 44 42 40 39 40 39 38 36 34 31 29 28 28 29 31 32 33 34 36 37 37 37 35 33 30 28 26 25 25 25 24 24 25 25 25 26 26 26 27 28 28 28 28 28 28 28 27 27 27 27 27 27 28 29 31 31 31 31 31 32 32 33 34 34 35 35 37 38 40 41 42 43 45 46 47 48 48 49 49
44 45 44 42 42 44 45 44 42 42 42 43 42 40 38 36 34 33 31 31 32 34 34 35 35 36 36 37 36 34 30 28 26 25 25 25 25 26 26 26 27 28 29 30 30 30 29 28 28 27 26 25 24 24 25 25 25 26 27 28 29 30 31 31 31 32 32 33 34 35 35 36 37 39 40 41 42 43 44 45 46 47 48 48 48 46
Wind_Direction
195 185 188 199 200 200 200 201 201 194 195 203 204 205 204 206 210 210 215 217 218 220 223 228 229 225 224 226 227 232 236 235 235 236 238 240 236 231 231 233 235 233 228 223 224 224 225 225 223 222 226 227 229 231 235 238 238 237 235 236 238 239 242 247 249 250 253 257 262 265 268 271 273 276 281 285 287 288 289 291 293 293 294 296 298 298
188 187 193 198 198 202 205 204 198 183 179 198 206 208 208 211 214 213 214 216 217 220 223 228 232 230 226 229 233 237 241 240 239 241 242 243 242 237 234 232 233 233 229 226 226 227 226 227 227 225 228 230 230 233 235 238 239 238 237 235 238 240 242 246 249 250 252 255 259 264 267 271 274 279 284 285 286 287 287 288 288 288 291 294 296 295
185 194 193 194 200 204 209 207 195 182 177 190 204 209 210 213 216 214 214 217 217 220 224 227 233 235 230 230 235 238 241 241 242 242 238 239 241 241 238 236 236 235 234 231 230 232 231 229 231 230 231 234 234 235 235 237 239 240 241 241 242 245 247 248 250 253 255 256 258 262 266 270 274 278 281 283 283 284 284 285 286 288 291 293 294 292
189 197 189 191 206 206 211 210 197 187 192 199 207 211 210 213 216 212 211 213 214 219 224 226 233 237 233 232 237 241 243 243 244 242 235 233 238 240 240 238 239 238 238 238 236 236 236 235 236 237 237 239 240 239 238 239 241 242 244 244 245 247 249 250 253 255 257 259 260 262 265 268 272 276 277 279 280 281 283 284 287 289 291 291 292 292
192 191 186 195 209 207 206 209 202 197 206 213 215 217 214 214 217 215 212 211 210 215 220 223 234 242 240 240 241 243 246 245 243 243 238 233 234 236 236 237 238 239 237 239 239 237 239 239 239 240 240 240 241 242 243 243 243 244 244 245 246 248 250 253 255 258 261 264 266 266 267 270 272 275 277 279 280 279 280 283 285 287 288 290 291 293
193 178 187 206 209 205 201 205 205 201 212 220 219 222 217 215 217 217 216 212 207 212 220 224 234 250 248 247 246 244 246 247 243 242 240 236 234 233 233 235 237 239 238 237 239 239 239 239 239 241 241 241 242 243 244 245 246 247 247 248 249 250 252 255 258 260 263 267 269 270 269 271 273 276 279 281 280 280 281 282 284 286 288 290 292 294
195 179 196 212 207 203 199 202 204 202 213 221 219 221 217 216 219 219 220 218 214 219 228 231 229 245 251 246 245 244 243 245 242 240 239 236 236 234 233 234 235 238 239 239 241 241 241 241 242 244 244 244 243 243 243 245 247 250 252 254 255 255 255 257 259 262 265 267 269 270 270 271 274 279 280 280 281 284 286 286 286 288 289 291 292 293
191 194 206 207 202 202 202 204 204 202 211 220 216 213 210 211 216 221 224 226 229 232 235 235 230 237 249 240 227 231 235 235 236 237 236 235 236 237 237 237 237 238 239 241 243 244 245 246 246 247 247 246 244 244 246 247 249 251 253 256 257 259 259 259 260 262 265 266 266 266 268 272 277 279 280 280 283 285 286 287 288 290 290 289 289 288
185 198 205 202 202 203 202 204 204 204 212 218 216 212 208 206 210 217 223 225 229 231 229 228 223 229 251 245 233 229 231 229 228 229 232 234 235 238 240 241 241 241 242 244 245 247 247 247 248 249 250 250 247 247 247 248 250 251 253 255 257 259 261 262 262 262 263 264 264 265 268 273 276 278 279 280 282 283 284 286 287 286 285 285 286 286
183 195 200 200 204 204 200 199 202 206 212 216 218 214 205 204 206 209 218 221 217 219 227 226 219 219 256 250 240 236 236 235 232 226 225 229 231 234 237 240 243 244 244 245 247 248 249 248 248 248 249 250 249 248 248 248 249 250 251 254 257 259 261 262 262 262 263 263 264 267 270 272 273 274 276 278 280 282 283 283 282 282 282 283 285 286
188 193 197 197 202 203 199 199 200 205 210 214 216 203 187 190 198 202 209 212 207 219 229 225 218 216 248 256 244 241 241 244 243 236 230 230 230 231 234 238 242 243 244 244 245 247 248 249 247 246 247 247 248 248 248 249 249 250 252 253 255 257 259 261 262 262 262 264 266 268 269 269 270 271 272 275 277 279 279 279 278 277 279 281 284 286
198 199 198 194 199 200 198 201 202 205 207 210 212 198 179 169 180 191 197 201 206 235 225 220 214 212 222 240 242 244 243 245 246 243 241 239 238 237 237 240 240 242 243 243 243 244 245 247 247 247 247 246 247 248 248 249 250 252 253 254 254 255 256 258 259 260 261 263 264 265 265 266 266 268 270 272 273 274 273 271 268 266 268 272 278 285
203 207 204 194 196 198 200 201 199 200 202 204 204 191 176 147 156 185 193 200 216 225 210 211 208 214 231 234 230 235 239 240 240 239 239 239 240 240 237 238 238 239 241 241 242 242 243 245 246 247 247 247 247 247 248 248 250 252 253 254 253 253 254 255 256 257 259 260 260 260 261 262 263 264 266 267 267 265 261 258 258 260 264 271 279 287
194 209 213 207 204 202 203 203 198 196 197 201 199 187 177 149 115 198 229 256 238 215 200 199 202 223 242 242 238 235 239 245 244 241 241 241 242 240 235 233 234 236 238 240 241 241 242 243 244 245 245 246 246 246 247 248 249 251 251 251 251 251 252 252 253 254 255 256 256 256 256 257 258 258 258 256 251 247 248 250 256 261 268 275 281 286
183 200 208 209 212 207 205 207 206 204 202 205 206 197 190 181 165 188 206 202 187 181 189 191 200 227 222 233 244 238 237 243 245 246 246 247 247 243 237 234 235 237 238 239 240 240 240 240 240 241 242 243 244 245 246 247 247 248 248 248 247 246 246 246 248 249 251 251 251 250 250 249 248 246 241 238 236 238 243 250 257 265 272 279 284 288
190 198 203 206 212 213 209 207 209 208 204 204 204 204 204 200 197 191 189 201 191 160 189 198 207 223 203 211 235 232 231 236 241 245 246 250 249 246 246 245 244 245 244 242 240 239 239 238 238 239 239 240 241 243 244 245 245 245 243 242 241 240 239 240 241 243 244 244 242 240 238 236 233 229 228 230 234 242 249 257 265 273 280 284 289 292
190 196 201 205 211 214 212 206 206 206 200 196 196 199 202 204 206 199 179 193 186 173 215 211 220 232 228 231 233 231 233 233 237 242 242 246 248 247 249 250 249 250 249 248 244 241 240 239 239 239 238 239 240 241 243 244 243 240 237 235 233 233 233 233 234 234 234 232 229 227 224 221 221 221 226 232 240 249 258 267 274 280 286 289 293 296
192 191 196 204 209 211 211 207 205 207 203 195 196 200 199 198 206 204 181 151 152 196 230 214 224 231 228 234 237 236 240 241 241 241 239 243 247 250 252 252 252 251 250 249 245 243 241 240 240 239 239 239 239 239 240 239 238 234 230 227 224 225 225 225 225 224 223 222 219 218 216 216 220 224 231 238 246 257 265 274 281 286 290 293 296 299
198 191 193 203 206 208 208 206 203 205 205 202 202 203 200 198 203 199 190 164 175 217 261 223 227 231 228 232 237 238 243 247 247 246 247 249 251 256 258 257 254 249 246 246 244 242 242 240 241 240 238 237 236 235 234 231 230 226 222 219 217 217 218 218 218 218 217 216 215 216 218 221 226 231 238 246 255 264 273 280 286 291 294 296 299 302
202 197 192 197 203 204 202 203 203 201 202 202 203 203 201 204 205 201 202 200 182 194 235 227 227 233 234 239 241 243 247 249 250 251 253 253 251 253 258 259 252 246 245 247 247 246 244 240 238 235 233 232 228 225 221 216 215 212 210 211 211 212 214 215 217 218 218 219 220 223 227 230 235 241 248 256 265 273 280 285 290 293 296 300 304 307
204 205 198 191 197 201 200 204 208 206 204 203 202 200 201 203 201 204 214 214 198 178 188 176 249 245 241 247 250 249 250 249 249 252 251 251 249 249 252 252 246 244 245 245 244 242 237 233 230 227 223 217 210 204 201 200 202 204 207 210 212 214 217 220 222 224 226 227 230 233 237 241 246 252 259 266 274 280 285 288 292 295 299 305 310 314
202 205 201 189 192 200 204 208 210 211 211 211 209 207 207 207 201 196 214 217 216 222 195 166 236 244 234 247 250 239 237 236 236 243 246 247 247 246 244 241 239 242 242 240 236 230 226 223 219 215 208 199 194 192 195 200 205 209 212 215 218 222 225 228 230 231 233 236 239 244 249 253 257 262 267 274 281 286 289 292 295 299 304 309 315 319
200 202 197 189 194 202 207 210 211 211 212 213 214 212 211 211 207 202 205 210 211 218 220 195 244 234 217 224 216 182 184 199 212 239 249 247 245 245 246 244 245 246 243 239 232 223 220 217 210 204 198 194 195 198 204 210 213 216 220 222 226 229 231 233 234 236 239 242 246 252 257 261 264 269 276 283 288 290 292 295 299 304 307 312 316 320
197 198 188 176 186 198 202 208 212 212 212 212 214 215 214 214 214 214 217 213 206 210 211 199 222 221 200 188 180 169 175 203 242 267 272 262 253 252 253 251 252 251 246 240 233 225 219 215 208 204 202 202 207 211 215 218 221 225 228 230 232 233 235 237 238 240 242 245 250 257 264 268 272 277 284 289 291 292 295 298 302 306 310 313 315 318
193 192 181 163 153 189 200 207 210 211 212 213 215 216 216 216 216 216 219 220 215 218 214 205 228 233 224 216 216 224 241 252 262 272 273 268 264 262 260 255 253 251 247 242 237 231 224 218 214 211 211 213 216 220 224 227 230 232 233 234 236 237 239 241 242 244 245 249 254 262 269 274 277 282 287 291 292 294 297 300 304 308 311 313 315 317
198 194 189 181 164 179 198 204 206 208 210 212 216 216 216 217 216 217 220 219 218 223 217 216 236 243 241 240 241 246 255 260 263 266 264 266 269 265 261 263 262 257 251 245 240 236 230 225 221 219 220 221 223 227 231 233 234 236 237 238 239 241 243 245 246 248 250 253 257 264 270 273 277 283 288 291 293 296 299 303 307 311 313 315 315 316
207 205 205 206 205 207 212 212 211 211 211 214 219 221 221 221 221 220 219 219 224 227 225 230 242 248 248 245 245 247 252 257 257 256 264 274 277 270 263 267 271 266 256 246 240 237 234 231 229 228 228 230 232 234 235 236 237 239 241 242 244 245 247 249 251 252 254 256 260 264 269 273 279 285 290 293 296 299 304 308 311 312 313 314 314 315
211 213 215 218 220 223 226 224 221 217 216 219 221 223 223 222 222 221 220 224 229 226 228 238 243 246 247 244 243 246 249 255 262 267 274 276 272 265 261 264 268 267 262 252 243 239 236 235 235 235 236 237 237 239 240 240 241 243 245 247 248 250 251 253 255 256 258 260 263 266 270 274 281 287 292 296 299 303 307 310 311 311 312 312 312 312
213 216 218 221 224 228 231 232 229 223 222 225 226 227 226 223 221 222 225 230 231 227 235 244 245 246 250 250 251 253 256 260 265 269 270 265 257 256 262 268 268 268 270 265 252 243 239 238 238 239 240 240 241 242 243 244 246 249 251 252 253 254 255 256 258 260 262 264 266 268 271 276 281 287 292 296 299 303 306 308 309 309 310 311 311 311
211 216 218 220 222 224 226 229 231 227 225 227 229 231 232 229 228 229 233 236 235 236 243 249 250 252 255 256 257 257 258 259 262 264 262 259 255 257 266 273 270 270 276 273 261 249 243 241 242 242 243 244 245 246 247 249 252 254 255 255 256 256 257 259 261 263 265 267 268 270 272 277 282 287 291 295 298 302 304 305 306 307 308 309 310 310
208 212 214 216 217 217 220 223 226 228 229 231 232 233 232 233 233 234 237 238 237 240 244 246 251 253 250 250 255 258 259 260 262 264 264 263 263 263 268 271 267 267 273 271 260 250 245 243 243 245 247 248 250 251 252 254 255 256 257 258 259 260 262 263 265 266 268 269 270 272 274 278 283 287 291 295 298 301 303 304 305 305 304 305 307 307
206 206 209 212 212 213 217 218 219 223 227 229 230 229 228 228 229 230 231 233 234 238 243 245 247 247 243 246 254 258 260 262 262 262 262 263 265 266 269 269 263 260 265 267 257 246 243 246 248 251 253 254 255 256 256 257 257 258 260 261 263 265 266 267 267 268 269 270 272 274 275 279 283 288 292 296 299 300 301 302 303 303 302 301 303 304
207 207 208 208 209 215 216 216 216 215 216 225 228 228 228 227 228 230 230 230 232 235 241 243 244 245 248 251 253 256 259 259 257 257 261 265 268 270 271 268 257 252 257 261 257 252 252 255 257 259 259 260 260 260 258 257 258 259 260 263 265 268 268 268 269 269 270 271 272 274 276 279 283 287 292 295 298 299 300 300 300 300 298 297 298 298
207 210 210 208 211 215 214 213 212 205 218 234 234 232 233 232 232 233 233 232 231 234 239 245 249 254 258 257 255 259 263 264 263 264 265 266 266 268 268 263 254 252 254 254 255 257 260 263 264 264 263 263 263 261 259 257 257 259 261 264 268 270 271 270 270 270 270 270 272 274 276 279 283 287 291 294 296 297 297 297 297 296 294 293 293 293
209 207 205 206 208 203 197 193 183 204 228 235 237 235 235 237 238 240 241 241 241 245 250 254 257 258 261 261 261 264 268 269 271 270 268 267 267 266 265 261 256 256 256 255 254 254 255 258 260 261 262 263 263 261 259 258 257 259 262 265 269 272 272 271 270 269 269 270 271 273 276 279 282 286 290 292 294 294 294 294 293 291 290 290 290 290
218 214 212 210 207 196 180 177 189 230 232 233 237 233 229 231 234 238 244 247 248 254 259 261 260 261 264 266 266 266 268 269 271 270 268 268 267 266 263 260 258 258 259 260 259 257 254 254 254 254 256 258 259 258 257 256 256 259 263 265 268 271 272 271 269 269 269 270 271 274 276 280 283 286 289 291 291 291 291 291 289 288 288 289 289 290
221 221 217 211 210 212 201 204 230 249 250 240 234 232 230 231 234 241 253 256 256 258 262 263 262 263 265 266 267 268 269 270 270 268 266 266 266 266 266 265 264 262 261 260 259 257 255 253 252 250 250 253 253 253 253 254 256 259 262 265 268 270 271 270 269 268 269 270 272 275 277 280 283 285 287 288 288 288 288 287 287 286 287 288 289 290
216 220 219 211 212 215 212 217 235 256 256 243 236 235 237 241 247 257 266 264 258 256 260 262 262 263 264 263 263 265 268 269 267 264 263 265 267 268 270 270 267 263 261 259 258 257 256 255 254 252 251 251 249 248 250 253 256 259 261 264 266 269 269 269 268 268 269 270 272 275 277 280 282 284 285 286 285 285 285 285 286 286 286 287 289 291
211 216 221 216 213 211 210 214 216 230 244 245 245 246 246 249 256 259 263 262 258 256 260 262 263 264 263 261 262 262 263 263 263 264 266 268 267 267 267 266 263 259 257 256 254 253 253 252 252 251 251 251 250 249 251 253 256 258 260 262 265 267 267 267 267 268 269 270 272 274 277 279 281 282 283 283 283 284 284 284 284 285 287 288 290 292
208 209 211 212 213 211 208 212 221 233 243 249 252 252 252 256 254 240 237 255 259 261 262 261 263 265 262 261 261 260 260 263 267 271 272 267 264 263 262 262 261 258 256 254 252 250 248 247 248 249 251 252 253 253 253 254 256 258 260 262 264 266 266 266 266 267 268 270 272 274 277 279 280 280 281 282 283 283 283 283 284 286 288 290 292 295
206 206 206 209 213 212 208 211 224 238 245 249 251 252 255 251 230 213 227 246 257 270 265 262 266 270 266 265 261 259 262 265 267 268 265 260 258 257 256 256 256 254 254 253 251 249 247 246 246 247 248 251 252 253 254 255 257 259 261 263 264 265 265 265 265 267 268 270 272 275 277 278 278 279 281 283 283 283 283 284 286 288 290 292 294 297
201 202 205 210 213 213 212 215 228 246 250 248 248 249 244 224 217 228 243 251 261 271 269 270 274 273 273 273 267 263 262 258 257 259 258 256 253 251 250 251 251 251 252 251 251 250 248 247 246 246 247 248 250 252 254 255 257 259 261 262 262 263 263 264 265 266 268 271 273 275 276 277 278 280 281 282 282 283 284 286 287 288 291 294 296 298
208 202 201 208 212 212 212 211 223 246 249 246 242 237 229 227 237 252 261 264 267 270 272 274 275 274 275 273 269 267 264 260 260 261 260 257 255 254 253 252 251 251 251 251 253 253 252 250 250 249 249 250 251 252 253 254 255 256 257 258 259 261 262 263 265 267 269 271 273 273 275 276 278 279 280 281 282 283 284 285 287 290 294 296 298 300
217 210 208 211 211 205 203 210 225 239 245 250 250 245 242 246 253 260 264 263 265 269 271 273 273 273 272 270 268 266 262 260 259 258 257 256 255 254 253 253 252 253 253 253 255 256 256 257 256 255 254 253 251 251 250 251 252 253 255 257 259 260 262 263 265 267 269 270 271 272 274 276 277 278 279 280 280 281 283 287 291 294 296 298 300 302
220 222 223 225 224 220 223 233 242 247 250 254 256 255 255 255 254 254 256 257 257 260 264 267 269 268 266 264 264 262 257 254 253 254 255 257 260 263 265 265 265 264 262 261 260 259 259 259 257 257 256 254 253 252 251 251 252 253 255 256 257 259 261 263 265 267 268 268 269 271 273 274 276 277 278 278 280 283 286 290 294 296 298 300 302 304
228 229 231 234 236 237 241 246 249 250 251 252 254 255 255 251 247 245 246 246 248 252 257 260 261 261 260 258 257 256 255 255 258 261 266 271 274 275 273 270 268 266 264 262 259 257 256 255 254 256 256 256 256 255 254 253 252 253 254 255 257 259 261 263 264 264 265 266 268 271 273 274 276 277 278 279 282 286 290 293 295 297 299 302 305 307
230 231 231 233 234 235 239 243 244 247 251 253 255 256 254 251 248 243 238 238 244 249 252 253 255 257 256 254 255 257 262 268 273 275 277 277 276 272 267 263 262 261 260 260 258 255 254 253 253 255 257 258 259 257 256 254 252 252 253 254 256 258 259 260 261 261 263 266 269 272 274 275 276 276 278 281 285 289 292 294 296 299 302 305 308 309
231 231 230 232 233 236 241 244 245 247 249 251 253 253 252 248 243 237 232 234 238 241 245 249 252 254 254 256 261 266 271 275 277 275 272 268 263 260 259 258 258 259 258 257 256 255 255 254 254 254 255 256 257 256 255 252 250 250 251 252 254 255 256 258 260 262 265 268 270 271 272 273 275 277 280 285 289 291 294 296 300 303 306 307 309 309
234 233 233 234 235 238 242 244 244 245 247 249 251 252 251 247 240 232 229 231 233 235 239 245 251 255 258 262 267 272 274 274 271 267 262 256 253 254 255 255 255 255 255 255 255 256 257 256 256 255 254 253 253 253 251 249 249 250 251 252 254 255 257 259 262 264 266 268 269 270 272 273 277 280 284 288 290 293 296 299 302 305 307 308 309 309
235 235 237 236 235 239 243 246 247 248 249 251 252 252 251 249 246 242 239 237 236 236 238 244 251 256 261 266 269 271 271 270 266 262 256 253 251 252 252 253 254 254 256 257 259 260 261 260 259 257 255 253 251 251 251 252 253 254 255 256 257 258 260 262 264 266 267 268 270 271 274 277 280 283 286 289 292 295 298 301 303 305 307 308 308 308
237 239 240 239 240 245 249 251 252 251 251 252 253 253 252 251 250 248 245 240 237 237 240 245 251 256 260 263 265 266 265 263 260 257 255 254 254 253 254 254 255 257 259 261 262 263 263 261 259 256 254 252 250 251 253 256 258 260 261 262 262 263 264 265 266 268 269 270 272 274 276 279 282 284 287 290 293 296 299 302 304 306 307 307 307 306
Height
3121 3124 3123 3123 3126 3130 3135 3138 3141 3144 3147 3150 3152 3154 3156 3157 3158 3160 3163 3164 3166 3166 3167 3168 3169 3170 3171 3172 3173 3174 3175 3176 3176 3177 3178 3179 3180 3181 3182 3183 3184 3185 3186 3187 3188 3189 3190 3190 3192 3193 3194 3195 3196 3196 3197 3198 3199 3200 3201 3202 3203 3204 3205 3205 3206 3207 3208 3208 3208 3209 3209 3209 3209 3210 3210 3211 3211 3211 3211 3210 3210 3209 3209 3209 3209 3208
3119 3118 3118 3121 3126 3132 3136 3139 3142 3144 3146 3149 3151 3153 3155 3156 3157 3159 3160 3162 3163 3164 3165 3166 3167 3168 3169 3170 3171 3172 3172 3173 3174 3175 3177 3177 3178 3179 3180 3181 3182 3183 3184 3185 3186 3187 3188 3189 3190 3191 3192 3193 3194 3195 3196 3196 3197 3198 3199 3200 3201 3202 3203 3204 3204 3205 3206 3206 3206 3207 3207 3207 3208 3208 3208 3208 3209 3209 3209 3209 3208 3207 3207 3207 3207 3206
3115 3112 3115 3123 3128 3132 3136 3138 3141 3143 3144 3147 3150 3151 3153 3154 3155 3157 3158 3160 3161 3162 3163 3164 3164 3165 3167 3168 3169 3169 3169 3171 3172 3174 3175 3176 3176 3177 3178 3179 3180 3181 3182 3183 3184 3185 3186 3187 3188 3189 3190 3191 3192 3193 3194 3195 3195 3196 3197 3198 3199 3200 3201 3201 3202 3203 3204 3204 3205 3205 3205 3206 3206 3206 3206 3206 3206 3206 3206 3206 3206 3205 3205 3205 3204 3204
3107 3109 3116 3124 3129 3132 3135 3137 3139 3141 3142 3144 3147 3149 3150 3151 3153 3154 3156 3158 3160 3161 3162 3162 3163 3163 3164 3165 3165 3166 3167 3169 3170 3171 3173 3173 3174 3175 3176 3177 3178 3179 3180 3181 3182 3183 3184 3185 3186 3187 3188 3189 3190 3191 3192 3193 3193 3194 3195 3196 3197 3197 3198 3199 3200 3201 3201 3202 3202 3203 3203 3204 3204 3204 3204 3204 3204 3204 3204 3204 3204 3203 3203 3202 3202 3201
3106 3110 3118 3124 3128 3131 3133 3135 3137 3138 3140 3142 3144 3146 3147 3149 3151 3153 3155 3157 3159 3160 3160 3161 3161 3160 3160 3162 3162 3164 3165 3165 3167 3168 3169 3171 3172 3173 3174 3175 3176 3177 3178 3179 3180 3181 3182 3183 3184 3185 3186 3187 3187 3188 3189 3190 3191 3192 3193 3194 3194 3195 3196 3197 3197 3198 3199 3199 3200 3201 3201 3201 3202 3202 3202 3202 3202 3202 3202 3202 3201 3201 3200 3200 3199 3198
3109 3114 3120 3124 3126 3129 3132 3133 3135 3136 3138 3141 3142 3144 3146 3148 3151 3153 3154 3156 3157 3157 3158 3160 3160 3156 3157 3159 3159 3161 3162 3162 3164 3165 3166 3168 3170 3171 3172 3173 3174 3175 3176 3177 3178 3179 3180 3181 3182 3183 3183 3184 3185 3186 3187 3188 3188 3189 3190 3191 3192 3193 3194 3194 3195 3196 3196 3197 3198 3198 3199 3199 3199 3199 3200 3200 3200 3200 3200 3200 3199 3198 3198 3197 3196 3196
3111 3114 3119 3123 3125 3127 3129 3130 3133 3135 3137 3139 3141 3142 3144 3146 3149 3151 3152 3154 3154 3154 3156 3158 3157 3154 3154 3155 3156 3158 3158 3159 3161 3162 3163 3165 3166 3168 3169 3171 3172 3173 3174 3175 3175 3176 3178 3179 3180 3180 3181 3182 3183 3184 3184 3185 3186 3186 3187 3188 3189 3190 3191 3192 3193 3193 3194 3194 3195 3195 3196 3196 3196 3197 3197 3197 3197 3197 3197 3197 3196 3196 3195 3194 3194 3193
3110 3114 3118 3121 3124 3125 3126 3128 3131 3134 3135 3137 3139 3141 3143 3144 3147 3149 3151 3152 3152 3153 3155 3155 3155 3154 3151 3152 3154 3155 3155 3156 3157 3159 3161 3162 3163 3165 3166 3168 3169 3170 3171 3172 3173 3174 3175 3176 3177 3178 3179 3180 3180 3181 3182 3183 3183 3184 3185 3185 3186 3187 3188 3189 3190 3191 3191 3192 3192 3193 3193 3193 3193 3194 3194 3193 3194 3194 3194 3193 3193 3193 3192 3192 3191 3191
3110 3114 3117 3119 3122 3123 3124 3127 3130 3133 3134 3136 3138 3140 3142 3144 3146 3148 3150 3150 3151 3152 3152 3151 3153 3153 3148 3148 3152 3152 3152 3153 3154 3156 3158 3159 3161 3162 3164 3165 3166 3167 3169 3169 3170 3171 3172 3173 3174 3175 3176 3177 3178 3179 3179 3180 3181 3182 3182 3183 3183 3184 3185 3186 3188 3188 3189 3189 3189 3190 3190 3190 3191 3191 3190 3190 3191 3191 3191 3190 3190 3190 3189 3189 3189 3188
3110 3113 3116 3118 3120 3121 3124 3127 3129 3132 3133 3135 3137 3139 3141 3143 3145 3147 3148 3148 3150 3149 3148 3148 3150 3150 3145 3144 3148 3149 3149 3151 3152 3155 3156 3157 3159 3160 3161 3162 3163 3164 3166 3167 3168 3168 3169 3170 3171 3172 3173 3174 3175 3176 3177 3177 3178 3179 3180 3181 3181 3182 3183 3184 3185 3186 3186 3186 3186 3187 3187 3188 3188 3188 3188 3187 3188 3188 3188 3188 3187 3187 3187 3187 3186 3186
3110 3112 3115 3117 3119 3121 3123 3126 3128 3130 3132 3134 3136 3138 3139 3142 3143 3145 3146 3147 3148 3146 3145 3146 3147 3147 3145 3142 3143 3145 3146 3148 3151 3153 3154 3155 3156 3158 3159 3160 3161 3162 3163 3164 3165 3165 3166 3167 3168 3170 3171 3172 3173 3173 3174 3174 3175 3176 3177 3178 3179 3180 3181 3181 3182 3183 3183 3184 3184 3184 3184 3185 3185 3185 3185 3185 3185 3185 3185 3185 3185 3184 3184 3184 3184 3184
3109 3110 3113 3115 3117 3120 3122 3124 3127 3129 3131 3132 3134 3135 3138 3140 3142 3144 3145 3146 3146 3143 3142 3144 3145 3146 3143 3140 3141 3143 3145 3147 3148 3150 3152 3153 3154 3156 3157 3157 3158 3159 3160 3161 3162 3163 3164 3164 3165 3167 3168 3169 3170 3171 3171 3172 3173 3174 3175 3176 3177 3178 3178 3179 3180 3180 3181 3181 3181 3181 3181 3182 3182 3182 3183 3183 3183 3182 3182 3182 3182 3182 3182 3182 3182 3182
3107 3108 3110 3113 3115 3117 3120 3122 3125 3127 3128 3130 3131 3132 3135 3139 3142 3143 3144 3143 3142 3141 3141 3142 3143 3143 3139 3137 3140 3142 3143 3145 3146 3148 3150 3151 3152 3153 3154 3155 3156 3156 3157 3158 3159 3160 3161 3161 3162 3164 3165 3166 3167 3168 3168 3169 3170 3171 3172 3173 3174 3175 3176 3176 3177 3177 3178 3178 3179 3179 3179 3179 3179 3180 3180 3180 3180 3180 3180 3180 3180 3180 3180 3180 3180 3180
3106 3107 3108 3110 3113 3115 3117 3119 3120 3122 3124 3126 3127 3129 3131 3135 3139 3141 3142 3141 3140 3140 3140 3141 3143 3140 3135 3136 3139 3140 3142 3142 3143 3145 3147 3148 3149 3150 3151 3152 3153 3154 3155 3155 3156 3157 3158 3159 3160 3160 3161 3162 3163 3164 3165 3166 3167 3168 3169 3170 3171 3172 3173 3173 3174 3174 3175 3175 3176 3176 3176 3176 3177 3177 3178 3178 3178 3178 3179 3179 3179 3179 3179 3178 3178 3178
3101 3102 3104 3107 3110 3112 3115 3117 3118 3121 3123 3125 3126 3128 3128 3130 3133 3137 3138 3138 3138 3139 3140 3141 3140 3136 3133 3134 3136 3138 3140 3140 3140 3142 3143 3145 3147 3148 3148 3149 3150 3151 3152 3153 3154 3154 3155 3156 3156 3157 3158 3159 3160 3161 3162 3163 3164 3165 3166 3167 3168 3169 3170 3170 3171 3171 3172 3172 3173 3173 3173 3174 3174 3175 3175 3176 3177 3177 3177 3178 3178 3178 3177 3177 3177 3176
3098 3100 3102 3106 3109 3111 3113 3115 3118 3120 3122 3123 3125 3127 3128 3128 3130 3132 3134 3134 3135 3137 3137 3137 3135 3131 3131 3133 3134 3135 3136 3137 3138 3139 3141 3142 3144 3145 3146 3147 3148 3149 3149 3150 3151 3151 3152 3153 3154 3154 3155 3156 3157 3158 3159 3160 3161 3162 3163 3164 3165 3166 3167 3167 3168 3169 3169 3170 3170 3171 3171 3172 3172 3173 3174 3174 3175 3176 3176 3176 3176 3176 3175 3175 3174 3174
3095 3099 3101 3105 3108 3110 3112 3113 3116 3117 3119 3120 3122 3123 3125 3127 3129 3130 3132 3133 3135 3135 3133 3132 3130 3130 3131 3131 3132 3133 3134 3135 3137 3137 3139 3140 3140 3142 3143 3144 3145 3146 3146 3147 3148 3148 3149 3150 3151 3151 3152 3153 3154 3155 3156 3157 3158 3159 3160 3161 3162 3163 3164 3165 3165 3166 3167 3167 3168 3168 3169 3170 3170 3171 3172 3173 3173 3174 3174 3174 3174 3174 3174 3173 3172 3171
3093 3097 3100 3103 3106 3108 3110 3112 3113 3115 3117 3118 3119 3121 3124 3127 3128 3129 3131 3133 3134 3134 3130 3128 3128 3129 3130 3129 3129 3132 3133 3134 3135 3136 3137 3137 3138 3139 3140 3141 3142 3142 3144 3144 3145 3145 3146 3147 3147 3148 3149 3150 3151 3153 3153 3154 3155 3156 3158 3159 3160 3161 3162 3162 3163 3164 3164 3165 3166 3167 3167 3168 3169 3169 3170 3171 3171 3172 3172 3172 3172 3172 3171 3170 3170 3169
3092 3096 3099 3101 3104 3106 3109 3110 3111 3113 3115 3116 3117 3120 3122 3124 3125 3126 3128 3130 3132 3132 3129 3127 3127 3126 3126 3127 3128 3130 3131 3132 3133 3134 3134 3135 3136 3136 3137 3138 3139 3140 3141 3141 3142 3143 3143 3144 3144 3145 3146 3147 3149 3150 3151 3152 3153 3154 3155 3156 3157 3159 3160 3161 3161 3162 3163 3164 3165 3165 3166 3167 3167 3168 3168 3168 3169 3169 3169 3169 3169 3169 3168 3168 3167 3166
3090 3094 3097 3099 3102 3105 3106 3107 3108 3109 3112 3114 3116 3118 3119 3121 3122 3123 3124 3125 3126 3128 3127 3126 3125 3124 3123 3125 3127 3128 3129 3130 3131 3132 3132 3133 3133 3134 3134 3135 3136 3137 3138 3139 3139 3140 3141 3141 3142 3143 3144 3145 3146 3148 3149 3150 3151 3152 3154 3155 3156 3157 3158 3159 3160 3161 3162 3163 3164 3164 3165 3165 3165 3166 3166 3166 3166 3167 3167 3167 3166 3166 3166 3165 3164 3163
3089 3091 3093 3097 3100 3102 3103 3103 3105 3107 3109 3111 3113 3115 3116 3118 3120 3121 3122 3122 3123 3124 3125 3125 3124 3121 3121 3123 3124 3126 3127 3128 3129 3130 3131 3131 3131 3132 3132 3133 3134 3135 3136 3136 3137 3137 3138 3139 3140 3141 3142 3143 3145 3146 3147 3149 3150 3151 3152 3153 3155 3156 3157 3158 3159 3160 3161 3161 3162 3163 3163 3163 3164 3164 3164 3164 3164 3164 3164 3164 3163 3163 3162 3161 3160 3159
3086 3088 3090 3094 3096 3098 3100 3102 3104 3106 3108 3109 3110 3111 3113 3115 3117 3119 3120 3120 3121 3121 3122 3122 3121 3119 3119 3121 3122 3123 3124 3125 3126 3128 3128 3129 3130 3130 3131 3131 3132 3133 3133 3134 3135 3135 3136 3137 3138 3139 3141 3142 3144 3145 3146 3147 3149 3150 3151 3152 3153 3154 3155 3156 3157 3158 3159 3160 3160 3161 3161 3162 3162 3162 3162 3161 3161 3161 3161 3160 3160 3159 3158 3157 3155 3154
3084 3086 3088 3091 3093 3096 3099 3101 3103 3104 3106 3107 3108 3109 3111 3112 3113 3115 3115 3116 3118 3119 3120 3120 3119 3117 3118 3119 3120 3121 3122 3123 3125 3126 3127 3128 3128 3129 3130 3130 3130 3131 3131 3132 3133 3134 3135 3136 3137 3138 3140 3141 3142 3144 3145 3146 3147 3148 3149 3150 3151 3152 3153 3154 3155 3156 3157 3158 3158 3159 3159 3159 3159 3159 3159 3159 3158 3158 3157 3156 3156 3155 3154 3152 3151 3150
3081 3083 3086 3089 3093 3095 3096 3099 3101 3102 3103 3104 3105 3107 3108 3110 3111 3113 3114 3115 3116 3117 3118 3119 3118 3116 3117 3118 3119 3120 3121 3122 3123 3124 3125 3126 3127 3128 3128 3128 3129 3129 3130 3130 3131 3133 3134 3135 3136 3137 3139 3140 3141 3142 3143 3144 3145 3146 3147 3148 3149 3150 3151 3152 3153 3154 3155 3155 3156 3156 3157 3157 3157 3156 3156 3155 3155 3154 3154 3153 3152 3151 3149 3148 3147 3146
3078 3080 3082 3087 3092 3095 3096 3097 3097 3097 3099 3100 3101 3103 3105 3107 3109 3111 3113 3114 3114 3114 3115 3116 3114 3113 3116 3117 3118 3119 3120 3121 3122 3123 3124 3125 3125 3126 3126 3126 3127 3127 3128 3129 3130 3131 3132 3134 3135 3136 3137 3138 3139 3140 3141 3142 3143 3144 3145 3146 3147 3148 3149 3150 3151 3151 3152 3153 3153 3153 3154 3153 3153 3153 3153 3152 3152 3151 3150 3149 3148 3147 3146 3144 3143 3142
3075 3077 3078 3081 3085 3087 3088 3086 3086 3089 3093 3096 3098 3100 3102 3105 3107 3109 3111 3112 3112 3112 3113 3112 3109 3110 3114 3115 3116 3117 3118 3119 3120 3121 3122 3123 3123 3124 3125 3125 3125 3126 3127 3128 3128 3129 3131 3132 3133 3134 3135 3136 3138 3139 3140 3140 3141 3142 3143 3144 3145 3146 3147 3147 3148 3149 3149 3150 3150 3150 3150 3150 3150 3150 3149 3149 3148 3148 3147 3145 3144 3143 3141 3140 3139 3138
3074 3074 3074 3075 3076 3077 3078 3080 3083 3087 3091 3093 3095 3097 3100 3102 3104 3106 3108 3108 3109 3110 3109 3107 3107 3108 3110 3112 3114 3115 3116 3117 3118 3119 3120 3121 3122 3122 3123 3123 3123 3124 3125 3125 3126 3127 3129 3130 3131 3132 3133 3134 3135 3136 3137 3138 3139 3140 3141 3142 3143 3143 3144 3145 3146 3146 3146 3147 3147 3147 3147 3147 3147 3146 3146 3145 3144 3144 3143 3141 3140 3139 3138 3137 3136 3135
3070 3070 3071 3073 3074 3076 3078 3081 3084 3086 3087 3089 3091 3093 3095 3098 3100 3102 3103 3103 3106 3106 3104 3103 3104 3104 3105 3109 3112 3113 3114 3115 3116 3117 3118 3119 3120 3120 3121 3121 3121 3121 3122 3123 3124 3125 3126 3128 3129 3130 3131 3132 3133 3134 3135 3135 3136 3138 3138 3139 3140 3141 3142 3142 3143 3143 3143 3144 3144 3144 3143 3143 3142 3142 3141 3141 3140 3139 3138 3137 3136 3135 3135 3134 3132 3131
3066 3067 3069 3071 3073 3076 3079 3081 3082 3084 3085 3086 3088 3089 3092 3094 3096 3098 3099 3100 3102 3101 3099 3100 3101 3100 3102 3107 3110 3111 3112 3113 3114 3114 3115 3116 3117 3117 3118 3118 3119 3119 3119 3121 3122 3123 3124 3125 3126 3128 3128 3129 3130 3131 3132 3133 3134 3135 3136 3137 3137 3138 3138 3139 3139 3140 3140 3140 3140 3140 3139 3139 3138 3138 3137 3137 3136 3135 3134 3133 3133 3132 3131 3130 3128 3127
3064 3065 3067 3070 3072 3075 3077 3079 3080 3082 3083 3084 3086 3087 3089 3091 3093 3094 3096 3097 3098 3097 3096 3098 3098 3097 3100 3104 3106 3108 3109 3110 3111 3112 3112 3113 3114 3115 3115 3116 3116 3117 3117 3118 3119 3120 3121 3122 3124 3125 3126 3127 3128 3128 3129 3130 3131 3132 3133 3133 3134 3135 3135 3136 3136 3136 3136 3136 3136 3136 3136 3135 3134 3134 3133 3133 3132 3131 3130 3129 3128 3127 3126 3125 3123 3123
3061 3063 3066 3068 3070 3073 3074 3076 3078 3079 3081 3082 3083 3085 3087 3089 3090 3091 3091 3092 3093 3092 3093 3095 3095 3093 3096 3100 3102 3104 3105 3106 3107 3109 3109 3110 3111 3112 3112 3113 3114 3115 3115 3116 3117 3117 3118 3119 3120 3122 3123 3124 3125 3126 3127 3127 3128 3129 3129 3130 3130 3131 3132 3132 3132 3132 3132 3132 3132 3132 3132 3131 3131 3130 3129 3129 3128 3127 3126 3125 3124 3123 3122 3120 3119 3118
3059 3062 3064 3066 3069 3070 3071 3074 3075 3077 3079 3079 3080 3081 3082 3083 3083 3083 3085 3087 3088 3089 3091 3092 3089 3088 3092 3097 3099 3099 3101 3103 3104 3106 3106 3107 3107 3108 3109 3111 3112 3113 3113 3114 3114 3115 3115 3116 3118 3119 3120 3121 3122 3123 3124 3124 3125 3125 3126 3126 3127 3127 3127 3128 3128 3128 3128 3128 3128 3128 3127 3127 3126 3126 3125 3124 3124 3123 3122 3121 3119 3118 3117 3116 3115 3114
3058 3060 3062 3065 3066 3067 3069 3071 3073 3075 3077 3074 3071 3073 3075 3076 3078 3080 3082 3083 3085 3086 3087 3085 3084 3086 3091 3096 3096 3095 3097 3099 3101 3102 3103 3104 3104 3105 3106 3108 3109 3110 3111 3111 3111 3112 3113 3114 3115 3116 3117 3118 3119 3120 3120 3121 3121 3122 3122 3122 3123 3123 3123 3124 3124 3124 3124 3124 3124 3123 3123 3123 3122 3122 3121 3120 3119 3118 3117 3116 3115 3114 3113 3112 3111 3110
3056 3059 3061 3063 3064 3065 3067 3069 3072 3074 3071 3064 3063 3068 3072 3074 3076 3078 3078 3079 3081 3082 3082 3082 3083 3086 3089 3092 3092 3092 3093 3095 3097 3098 3099 3100 3101 3102 3103 3104 3106 3107 3107 3108 3108 3109 3110 3111 3112 3113 3114 3115 3116 3116 3117 3117 3117 3118 3118 3118 3118 3119 3119 3119 3120 3120 3120 3120 3120 3119 3119 3118 3118 3117 3117 3116 3115 3114 3113 3112 3111 3110 3109 3108 3108 3106
3054 3057 3059 3060 3062 3063 3064 3067 3070 3068 3061 3058 3061 3067 3070 3071 3074 3074 3073 3075 3078 3079 3079 3080 3081 3083 3085 3087 3088 3089 3089 3090 3092 3093 3094 3095 3096 3098 3099 3101 3102 3103 3103 3104 3105 3106 3106 3107 3108 3109 3110 3111 3112 3112 3112 3113 3113 3113 3114 3114 3114 3114 3115 3115 3115 3115 3115 3115 3115 3115 3114 3114 3113 3113 3112 3111 3110 3109 3108 3107 3106 3105 3105 3104 3103 3102
3050 3053 3056 3058 3060 3062 3063 3064 3062 3058 3055 3057 3060 3062 3065 3067 3068 3069 3068 3070 3073 3076 3076 3077 3077 3079 3082 3083 3084 3085 3085 3085 3086 3087 3089 3090 3091 3093 3095 3096 3097 3098 3099 3100 3101 3101 3102 3103 3104 3105 3106 3106 3107 3107 3108 3108 3109 3109 3109 3110 3110 3110 3110 3111 3111 3111 3111 3111 3111 3110 3110 3109 3109 3108 3107 3106 3106 3105 3104 3103 3102 3101 3100 3099 3098 3097
3045 3048 3051 3055 3056 3058 3060 3060 3058 3057 3055 3054 3054 3056 3059 3062 3063 3066 3066 3066 3069 3073 3073 3072 3074 3075 3078 3079 3080 3081 3081 3081 3081 3081 3083 3085 3086 3088 3090 3092 3093 3094 3095 3095 3096 3097 3098 3099 3099 3100 3101 3101 3102 3102 3103 3103 3104 3105 3105 3105 3106 3106 3106 3106 3106 3106 3106 3106 3106 3105 3105 3104 3104 3103 3103 3102 3101 3100 3099 3098 3097 3096 3095 3094 3093 3092
3041 3043 3046 3050 3051 3054 3057 3058 3060 3059 3050 3043 3046 3051 3056 3060 3063 3066 3066 3061 3062 3067 3069 3068 3069 3071 3072 3075 3075 3076 3077 3076 3074 3075 3079 3081 3082 3084 3085 3086 3088 3089 3089 3090 3091 3092 3093 3094 3095 3096 3096 3096 3097 3097 3098 3099 3100 3100 3101 3101 3101 3101 3101 3101 3101 3101 3101 3101 3101 3100 3100 3100 3099 3098 3098 3097 3096 3095 3094 3093 3092 3091 3091 3090 3088 3087
3039 3041 3044 3047 3047 3050 3053 3054 3055 3052 3040 3036 3043 3051 3055 3058 3061 3065 3064 3055 3052 3060 3065 3064 3064 3066 3068 3070 3071 3071 3072 3070 3068 3071 3076 3078 3078 3079 3080 3081 3082 3083 3084 3085 3086 3087 3088 3089 3090 3091 3091 3091 3092 3092 3093 3094 3095 3095 3096 3096 3096 3096 3096 3097 3097 3097 3097 3096 3096 3096 3095 3095 3094 3093 3093 3092 3091 3090 3089 3088 3087 3086 3085 3084 3083 3082
3036 3038 3041 3043 3043 3044 3046 3048 3047 3043 3036 3036 3044 3048 3051 3055 3059 3062 3059 3048 3046 3055 3061 3061 3060 3062 3064 3065 3066 3067 3066 3065 3066 3069 3072 3073 3074 3074 3075 3075 3076 3078 3079 3080 3081 3082 3083 3084 3085 3085 3086 3087 3087 3088 3088 3089 3090 3090 3091 3091 3091 3091 3091 3092 3092 3092 3092 3091 3091 3091 3090 3090 3089 3088 3088 3087 3086 3085 3084 3083 3082 3081 3080 3079 3078 3076
3033 3035 3037 3038 3039 3041 3043 3043 3042 3037 3033 3036 3041 3044 3047 3052 3054 3052 3047 3044 3047 3053 3057 3057 3057 3058 3060 3061 3062 3062 3062 3063 3063 3064 3066 3067 3068 3069 3069 3070 3071 3072 3073 3074 3075 3076 3077 3078 3079 3080 3081 3082 3082 3083 3083 3084 3085 3085 3086 3086 3086 3086 3086 3086 3087 3087 3087 3086 3086 3086 3085 3085 3084 3083 3083 3082 3081 3080 3079 3078 3077 3076 3075 3074 3073 3071
3028 3031 3033 3035 3037 3038 3039 3041 3041 3034 3029 3033 3038 3041 3043 3045 3043 3041 3041 3045 3050 3051 3052 3053 3054 3055 3057 3058 3058 3059 3059 3060 3060 3060 3061 3063 3063 3064 3065 3065 3066 3067 3068 3069 3070 3071 3072 3073 3074 3075 3076 3076 3077 3078 3079 3079 3080 3080 3081 3081 3081 3081 3081 3082 3082 3082 3082 3082 3081 3081 3081 3080 3079 3078 3077 3076 3076 3075 3074 3073 3072 3071 3070 3069 3067 3066
3022 3026 3028 3029 3032 3035 3037 3039 3038 3029 3022 3027 3034 3036 3036 3037 3037 3039 3043 3046 3048 3048 3048 3049 3050 3051 3053 3054 3055 3056 3056 3057 3057 3058 3058 3059 3060 3061 3061 3062 3063 3064 3065 3065 3066 3067 3068 3068 3069 3070 3071 3072 3072 3073 3074 3074 3075 3075 3075 3076 3076 3076 3077 3077 3077 3077 3077 3077 3076 3076 3076 3075 3074 3073 3072 3071 3071 3070 3069 3068 3067 3066 3064 3063 3062 3060
3018 3020 3021 3022 3025 3027 3028 3028 3027 3021 3020 3025 3029 3030 3031 3034 3036 3039 3041 3042 3044 3045 3045 3045 3046 3047 3049 3050 3052 3053 3053 3054 3054 3055 3055 3056 3057 3057 3058 3059 3059 3060 3061 3062 3062 3063 3064 3064 3065 3066 3066 3067 3067 3068 3068 3069 3069 3070 3070 3071 3071 3072 3072 3072 3072 3072 3072 3072 3072 3071 3071 3070 3069 3068 3067 3067 3066 3065 3064 3063 3062 3060 3059 3058 3056 3054
3013 3015 3017 3018 3020 3021 3021 3021 3022 3022 3022 3023 3025 3026 3030 3033 3035 3037 3038 3039 3041 3042 3042 3043 3043 3044 3045 3047 3048 3049 3050 3050 3051 3052 3052 3053 3053 3054 3055 3055 3056 3056 3057 3058 3058 3059 3060 3060 3060 3061 3061 3062 3062 3063 3063 3064 3064 3065 3065 3066 3066 3067 3067 3068 3068 3068 3067 3067 3067 3066 3066 3065 3064 3063 3063 3062 3061 3060 3059 3058 3056 3055 3054 3052 3050 3048
3011 3013 3015 3016 3017 3019 3019 3019 3020 3021 3020 3021 3022 3025 3027 3029 3031 3034 3035 3037 3038 3038 3039 3040 3040 3040 3041 3042 3044 3045 3046 3046 3047 3048 3049 3049 3050 3051 3051 3051 3051 3052 3052 3053 3053 3054 3055 3055 3055 3056 3056 3056 3057 3057 3058 3059 3059 3060 3061 3061 3062 3062 3063 3063 3063 3063 3062 3062 3062 3061 3061 3060 3060 3059 3058 3057 3056 3056 3054 3053 3051 3050 3049 3047 3045 3042
3008 3010 3011 3012 3014 3014 3013 3013 3016 3018 3019 3020 3021 3022 3023 3026 3028 3030 3032 3033 3034 3035 3036 3036 3037 3038 3038 3038 3039 3041 3041 3042 3043 3044 3045 3045 3046 3046 3046 3047 3047 3047 3048 3048 3049 3049 3050 3050 3051 3051 3052 3052 3052 3053 3053 3054 3055 3055 3056 3056 3057 3058 3058 3058 3058 3057 3057 3057 3057 3057 3056 3056 3055 3055 3053 3052 3051 3050 3049 3048 3046 3045 3043 3041 3039 3037
3003 3006 3007 3008 3009 3009 3008 3010 3014 3015 3016 3017 3017 3018 3020 3022 3024 3026 3028 3029 3031 3031 3032 3033 3034 3034 3034 3034 3035 3036 3037 3038 3039 3040 3040 3041 3041 3042 3042 3042 3043 3043 3043 3044 3044 3045 3046 3046 3047 3047 3048 3048 3049 3049 3049 3050 3050 3051 3051 3052 3053 3053 3053 3053 3053 3053 3053 3053 3053 3053 3052 3052 3051 3050 3048 3047 3046 3045 3044 3043 3041 3039 3037 3035 3033 3031
2999 3000 3001 3003 3005 3004 3005 3007 3009 3011 3012 3013 3014 3015 3017 3018 3021 3023 3024 3025 3027 3027 3028 3029 3030 3030 3030 3031 3031 3032 3033 3034 3035 3036 3036 3036 3037 3038 3038 3038 3039 3039 3039 3040 3040 3041 3042 3042 3043 3043 3044 3044 3044 3044 3045 3045 3045 3046 3047 3048 3048 3049 3049 3049 3049 3049 3049 3049 3048 3048 3047 3047 3046 3045 3044 3043 3042 3041 3039 3038 3036 3034 3031 3029 3027 3025
2993 2993 2995 2999 3000 2999 2999 3002 3005 3007 3009 3010 3011 3012 3013 3014 3016 3018 3020 3021 3022 3023 3024 3024 3025 3026 3026 3026 3027 3028 3029 3030 3030 3031 3032 3032 3033 3034 3034 3035 3035 3035 3036 3036 3036 3037 3037 3038 3038 3039 3039 3039 3040 3040 3040 3041 3042 3043 3043 3044 3044 3044 3044 3044 3044 3044 3044 3044 3043 3043 3042 3042 3041 3040 3039 3038 3037 3036 3034 3032 3031 3029 3026 3024 3022 3019
2986 2988 2991 2994 2994 2995 2997 2999 3001 3003 3004 3005 3007 3008 3009 3011 3012 3014 3015 3017 3017 3018 3019 3019 3020 3021 3021 3022 3023 3024 3024 3025 3026 3027 3028 3028 3029 3030 3030 3031 3031 3031 3032 3032 3032 3032 3033 3033 3034 3034 3035 3035 3036 3036 3037 3037 3038 3039 3039 3039 3039 3039 3039 3039 3039 3039 3039 3039 3038 3038 3037 3037 3036 3036 3035 3033 3032 3031 3029 3027 3026 3024 3022 3019 3017 3014